User: anonymous   Login
Location: Unspecified
(0.0000°N, 0.0000°E)
Time: 20:24:47
(UTC+00:00)
Language:

NEXSAT-1 - Orbit

View from above orbital plane
View from above orbital plane
View from above satellite
View from above satellite

Ground track
Ground track

The orbit is defined by the following mean orbital elements,

1 58921U          26145.59366825 +.00000000 +00000-0 +20368-3 0 00002
2 58921  97.3056 219.9113 0008120 184.6669 175.4499 15.33219652    00
Epoch (UTC): 25 May 2026 14:14:52
Eccentricity: 0.0008120
inclination: 97.3056°
perigee height: 461 km
apogee height: 472 km
right ascension of ascending node: 219.9113°
argument of perigee: 184.6669°
revolutions per day: 15.33219652
mean anomaly at epoch: 175.4499°

The dashed part of the orbit path shows where the satellite is in the earth's shadow,  

DLR